sat.trackr.live / text

‹ back to catalog

STARLINK-36848

NORAD 67936 · 2026-037E

PAYLOAD ACTIVE UNKNOWN

§ Identity

Operator
Country
US
Launch date
2026-02-24
Launch site
AFETR
Launch vehicle
Mass (kg)
RCS (m²)

Purposes: comms

External: N2YO · Heavens-Above · Gunter

§ Orbital elements

Epoch: 2026-05-25T05:22:24.043296Z

Period
94.27 min
Inclination
43.0015°
Eccentricity
0.0000756
Mean motion
15.27588078 rev/d
Perigee alt
482.5 km
Apogee alt
483.5 km
Semi-major
6,861.2 km
B*
5.4470e-4
RAAN
118.6818°
Arg perigee
275.6892°
Mean anomaly
84.3874°
Rev number
1,504

§ Raw data

STARLINK-368481 67936U 26037E   26145.22388939  .00014760  00000+0  54470-3 0  99912 67936  43.0015 118.6818 0000756 275.6892  84.3874 15.27588078 15041

JSON: /api/v1/satellites/67936 · /tle

For live sub-satellite position, see the globe view (requires WebGL).

§ Visibility from observer

Set your observer location to see the next 7 days of passes ≥ 10°. The values pass through the URL so the page stays shareable.

No JS? Fill the form by hand. The geolocation button needs JavaScript.